This is the latest recevied weather packets stored in our database for station/object KB2AHZ. If no packets are shown the sender has not sent any weather packets the latest 10 day(s).
| Time | Temp. | Humidity | Pressure | Rain* | Wind** | Luminosity | Snow |
|---|---|---|---|---|---|---|---|
| 1777574572 | 21.67° C | 47% | 1009.4 hPa | 0 mm | - | 858 W/m² | - |
| 1777574268 | 22.22° C | 48% | 1009.4 hPa | 0 mm | - | 863 W/m² | - |
| 1777573963 | 21.67° C | 47% | 1009.7 hPa | 0 mm | - | 867 W/m² | - |
| 1777573658 | 21.67° C | 53% | 1009.4 hPa | 0 mm | - | 884 W/m² | - |
| 1777573355 | 21.67° C | 50% | 1009.4 hPa | 0 mm | - | 885 W/m² | - |
| 1777573050 | 21.67° C | 54% | 1009.6 hPa | 0 mm | - | 904 W/m² | - |
| 1777572747 | 21.11° C | 51% | 1009.3 hPa | 0 mm | - | 908 W/m² | - |
| 1777572441 | 21.11° C | 51% | 1009.5 hPa | 0 mm | - | 901 W/m² | - |
| 1777572138 | 21.11° C | 52% | 1009.5 hPa | 0 mm | - | 908 W/m² | - |
| 1777571832 | 21.11° C | 58% | 1009.8 hPa | 0 mm | - | 910 W/m² | - |
| 1777571524 | 20.56° C | 55% | 1009.8 hPa | 0 mm | - | 916 W/m² | - |
| 1777571221 | 20.56° C | 57% | 1009.8 hPa | 0 mm | - | 916 W/m² | - |
| 1777570916 | 21.11° C | 54% | 1009.8 hPa | 0 mm | - | 908 W/m² | - |
| 1777570612 | 20.56° C | 58% | 1010.1 hPa | 0 mm | - | 925 W/m² | - |
| 1777570309 | 21.11° C | 59% | 1010.1 hPa | 0 mm | - | 929 W/m² | - |
| 1777570004 | 20.56° C | 59% | 1010.1 hPa | 0 mm | - | 923 W/m² | - |
| 1777569700 | 20° C | 62% | 1010.2 hPa | 0 mm | - | 867 W/m² | - |
| 1777569396 | 20° C | 59% | 1010.4 hPa | 0 mm | - | 819 W/m² | - |
| 1777569088 | 20° C | 57% | 1010.3 hPa | 0 mm | - | 798 W/m² | - |
| 1777568784 | 20.56° C | 60% | 1010.3 hPa | 0 mm | - | 767 W/m² | - |
| 1777568482 | 20° C | 62% | 1010.5 hPa | 0 mm | - | 749 W/m² | - |
| 1777568178 | 20° C | 60% | 1010.5 hPa | 0 mm | - | 748 W/m² | - |
| 1777567875 | 20.56° C | 66% | 1010.4 hPa | 0 mm | - | 746 W/m² | - |
| 1777567571 | 20° C | 60% | 1010.4 hPa | 0 mm | - | 750 W/m² | - |
| 1777567269 | 20.56° C | 62% | 1010.6 hPa | 0 mm | - | 756 W/m² | - |
* Rain latest hour (hover to see other rain measurements)
** Current wind speed in m/s (hover to see current wind gust speed)